AFR604 TFFF-SOCA

Flight info

Callsign AFR604
Flight time 2h 3m
Altitude 39000
Route BORUS2R BORUS DCT BGI UA555 TRAPP UM786 KALEP KALEP1U
Aircraft A320/M-SDE2E3FGIJ1RWY/HB1

Departure

Time 2026-05-07 13:11
Airport Martinique Aimé Césaire International Airport (TFFF)

Arrival

Time 2026-05-07 15:14
Airport Cayenne – Félix Eboué Airport (SOCA)
Time Latitude Longitude Altitude Speed Heading
2026-05-07 12:29 14.59434 -60.99839 20 ft 0 kts 80°
2026-05-07 13:05 14.59427 -60.99822 20 ft 4 kts 143°
2026-05-07 13:05 14.59402 -60.99827 20 ft 3 kts 197°
2026-05-07 13:05 14.59383 -60.99859 20 ft 12 kts 254°
2026-05-07 13:05 14.59364 -60.99962 21 ft 15 kts 262°
2026-05-07 13:06 14.59339 -61.00033 21 ft 8 kts 218°
2026-05-07 13:06 14.59295 -61.00039 20 ft 5 kts 175°
2026-05-07 13:06 14.59263 -61.00033 20 ft 5 kts 171°
2026-05-07 13:06 14.59223 -61.00026 19 ft 13 kts 168°
2026-05-07 13:07 14.59144 -61.00071 17 ft 15 kts 261°
2026-05-07 13:07 14.59128 -61.00190 16 ft 17 kts 261°
2026-05-07 13:07 14.59106 -61.00315 16 ft 19 kts 259°
2026-05-07 13:07 14.59083 -61.00453 15 ft 20 kts 261°
2026-05-07 13:08 14.59058 -61.00601 16 ft 22 kts 260°
2026-05-07 13:08 14.59031 -61.00761 23 ft 24 kts 260°
2026-05-07 13:08 14.59000 -61.00942 22 ft 29 kts 260°
2026-05-07 13:08 14.58964 -61.01150 24 ft 28 kts 261°
2026-05-07 13:09 14.58930 -61.01351 24 ft 29 kts 260°
2026-05-07 13:09 14.58895 -61.01562 21 ft 30 kts 260°
2026-05-07 13:09 14.58868 -61.01729 17 ft 16 kts 274°
2026-05-07 13:09 14.58880 -61.01820 17 ft 13 kts 199°
2026-05-07 13:10 14.58859 -61.01767 18 ft 0 kts 80°
2026-05-07 13:10 14.58903 -61.01512 23 ft 72 kts 80°
2026-05-07 13:10 14.59026 -61.00786 22 ft 131 kts 80°
2026-05-07 13:11 14.59215 -60.99701 90 ft 170 kts 80°
2026-05-07 13:11 14.59422 -60.98498 668 ft 172 kts 81°
2026-05-07 13:11 14.59623 -60.97274 1332 ft 173 kts 80°
2026-05-07 13:11 14.59844 -60.96055 2005 ft 171 kts 79°
2026-05-07 13:12 14.60067 -60.94857 2631 ft 170 kts 80°
2026-05-07 13:12 14.60267 -60.93631 3136 ft 175 kts 81°
2026-05-07 13:12 14.60474 -60.92313 3383 ft 198 kts 81°
2026-05-07 13:12 14.60698 -60.90835 3623 ft 221 kts 81°
2026-05-07 13:13 14.60787 -60.89170 3913 ft 246 kts 102°
2026-05-07 13:13 14.59936 -60.87615 4471 ft 258 kts 136°
2026-05-07 13:13 14.58500 -60.86485 5266 ft 262 kts 148°
2026-05-07 13:13 14.56926 -60.85525 6079 ft 265 kts 150°
2026-05-07 13:14 14.55321 -60.84571 6710 ft 269 kts 149°
2026-05-07 13:14 14.53715 -60.83556 7421 ft 271 kts 147°
2026-05-07 13:14 14.52129 -60.82486 8228 ft 274 kts 146°
2026-05-07 13:14 14.50555 -60.81367 8993 ft 276 kts 144°
2026-05-07 13:15 14.48981 -60.80207 9736 ft 280 kts 144°
2026-05-07 13:15 14.47391 -60.79011 10302 ft 291 kts 143°
2026-05-07 13:15 14.45698 -60.77728 10521 ft 314 kts 143°
2026-05-07 13:15 14.43923 -60.76378 10926 ft 326 kts 143°
2026-05-07 13:16 14.42082 -60.74978 11578 ft 331 kts 143°
2026-05-07 13:16 14.40217 -60.73563 12243 ft 334 kts 143°
2026-05-07 13:16 14.38333 -60.72134 12903 ft 338 kts 143°
2026-05-07 13:16 14.36431 -60.70691 13537 ft 341 kts 143°
2026-05-07 13:17 14.34513 -60.69237 14151 ft 344 kts 143°
2026-05-07 13:17 14.32576 -60.67769 14755 ft 347 kts 143°
2026-05-07 13:17 14.30621 -60.66291 15347 ft 350 kts 143°
2026-05-07 13:17 14.28649 -60.64802 15909 ft 353 kts 143°
2026-05-07 13:18 14.26661 -60.63299 16495 ft 356 kts 143°
2026-05-07 13:18 14.24654 -60.61783 17051 ft 359 kts 143°
2026-05-07 13:18 14.22632 -60.60256 17590 ft 362 kts 143°
2026-05-07 13:18 14.20598 -60.58716 18115 ft 365 kts 143°
2026-05-07 13:19 14.18545 -60.57162 18630 ft 367 kts 143°
2026-05-07 13:19 14.16476 -60.55597 19138 ft 370 kts 143°
2026-05-07 13:19 14.14393 -60.54024 19627 ft 373 kts 143°
2026-05-07 13:19 14.12292 -60.52440 20104 ft 376 kts 144°
2026-05-07 13:20 14.10308 -60.50907 21790 ft 307 kts 141°
2026-05-07 13:20 14.08570 -60.49485 22471 ft 329 kts 143°
2026-05-07 13:20 14.06692 -60.48057 22604 ft 342 kts 144°
2026-05-07 13:20 14.04832 -60.46703 23758 ft 311 kts 145°
2026-05-07 13:21 14.02999 -60.45379 23842 ft 330 kts 144°
2026-05-07 13:21 14.00997 -60.43905 23164 ft 360 kts 143°
2026-05-07 13:21 13.99248 -60.42318 24745 ft 321 kts 134°
2026-05-07 13:21 13.97557 -60.40582 23835 ft 364 kts 136°
2026-05-07 13:22 13.95732 -60.38679 23744 ft 381 kts 132°
2026-05-07 13:22 13.93940 -60.36607 23588 ft 398 kts 133°
2026-05-07 13:22 13.91975 -60.34491 23454 ft 413 kts 134°
2026-05-07 13:22 13.90096 -60.32456 24935 ft 381 kts 133°
2026-05-07 13:23 13.88185 -60.30378 22602 ft 438 kts 134°
2026-05-07 13:23 13.85886 -60.27964 20954 ft 475 kts 134°
2026-05-07 13:23 13.83764 -60.25743 22073 ft 424 kts 134°
2026-05-07 13:23 13.81654 -60.23559 21267 ft 440 kts 134°
2026-05-07 13:24 13.79498 -60.21243 20283 ft 452 kts 133°
2026-05-07 13:24 13.77360 -60.18946 20216 ft 439 kts 134°
2026-05-07 13:24 13.75163 -60.16633 19423 ft 463 kts 134°
2026-05-07 13:24 13.72930 -60.14314 19583 ft 463 kts 135°
2026-05-07 13:25 13.70736 -60.12040 19680 ft 436 kts 135°
2026-05-07 13:25 13.68579 -60.09856 19218 ft 422 kts 136°
2026-05-07 13:25 13.66540 -60.07875 18319 ft 420 kts 136°
2026-05-07 13:25 13.64351 -60.05770 18306 ft 395 kts 137°
2026-05-07 13:26 13.62584 -60.04108 20404 ft 318 kts 138°
2026-05-07 13:26 13.60960 -60.02650 20306 ft 310 kts 140°
2026-05-07 13:26 13.59236 -60.01155 19000 ft 341 kts 137°
2026-05-07 13:26 13.57487 -59.99362 18565 ft 369 kts 133°
2026-05-07 13:27 13.55748 -59.97416 19064 ft 371 kts 132°
2026-05-07 13:27 13.53997 -59.95451 19622 ft 373 kts 133°
2026-05-07 13:27 13.52212 -59.93505 20110 ft 375 kts 134°
2026-05-07 13:27 13.50384 -59.91581 20594 ft 378 kts 135°
2026-05-07 13:28 13.48519 -59.89672 21050 ft 380 kts 135°
2026-05-07 13:28 13.46649 -59.87791 21487 ft 383 kts 136°
2026-05-07 13:28 13.44704 -59.85851 21934 ft 385 kts 136°
2026-05-07 13:28 13.42775 -59.83927 22363 ft 388 kts 136°
2026-05-07 13:29 13.40839 -59.81991 22776 ft 390 kts 135°
2026-05-07 13:29 13.38918 -59.80059 23170 ft 392 kts 135°
2026-05-07 13:29 13.36967 -59.78087 23569 ft 395 kts 135°
2026-05-07 13:29 13.35007 -59.76102 23948 ft 397 kts 135°
2026-05-07 13:30 13.33034 -59.74105 24331 ft 399 kts 135°
2026-05-07 13:30 13.31049 -59.72101 24701 ft 401 kts 135°
2026-05-07 13:30 13.29054 -59.70087 25059 ft 404 kts 135°
2026-05-07 13:30 13.27044 -59.68060 25410 ft 406 kts 135°
2026-05-07 13:31 13.25000 -59.66000 25755 ft 408 kts 135°
2026-05-07 13:31 13.22969 -59.63953 26091 ft 410 kts 135°
2026-05-07 13:31 13.20955 -59.61926 26402 ft 412 kts 135°
2026-05-07 13:31 13.18904 -59.59862 26717 ft 415 kts 135°
2026-05-07 13:32 13.16838 -59.57784 27021 ft 417 kts 135°
2026-05-07 13:32 13.14761 -59.55697 27336 ft 419 kts 135°
2026-05-07 13:32 13.12676 -59.53599 27649 ft 421 kts 135°
2026-05-07 13:32 13.10583 -59.51492 27963 ft 422 kts 135°
2026-05-07 13:33 13.08482 -59.49378 28265 ft 424 kts 135°
2026-05-07 13:33 13.06352 -59.47276 28560 ft 426 kts 137°
2026-05-07 13:33 13.04156 -59.45237 28849 ft 427 kts 139°
2026-05-07 13:33 13.01903 -59.43235 29125 ft 429 kts 139°
2026-05-07 13:34 12.99622 -59.41254 29388 ft 431 kts 140°
2026-05-07 13:34 12.95028 -59.37263 29892 ft 434 kts 139°
2026-05-07 13:34 12.92737 -59.35244 30137 ft 436 kts 139°
2026-05-07 13:35 12.90443 -59.33206 30373 ft 437 kts 139°
2026-05-07 13:35 12.88141 -59.31150 30599 ft 439 kts 139°
2026-05-07 13:35 12.85839 -59.29086 30832 ft 440 kts 139°
2026-05-07 13:35 12.83533 -59.27018 31105 ft 440 kts 139°
2026-05-07 13:36 12.81226 -59.24955 31431 ft 440 kts 139°
2026-05-07 13:36 12.78924 -59.22903 31727 ft 439 kts 139°
2026-05-07 13:36 12.76621 -59.20852 32027 ft 438 kts 139°
2026-05-07 13:36 12.74321 -59.18807 32322 ft 437 kts 139°
2026-05-07 13:37 12.72025 -59.16770 32614 ft 437 kts 139°
2026-05-07 13:37 12.69730 -59.14737 32905 ft 436 kts 139°
2026-05-07 13:37 12.67469 -59.12670 33097 ft 437 kts 126°
2026-05-07 13:37 12.65853 -59.10279 34867 ft 374 kts 120°
2026-05-07 13:38 12.64295 -59.08339 36371 ft 343 kts 131°
2026-05-07 13:38 12.62492 -59.06809 36818 ft 332 kts 140°
2026-05-07 13:38 12.60612 -59.05525 37200 ft 321 kts 142°
2026-05-07 13:38 12.58698 -59.04282 36880 ft 335 kts 140°
2026-05-07 13:39 12.56715 -59.02876 36263 ft 357 kts 135°
2026-05-07 13:39 12.54750 -59.01313 36381 ft 352 kts 136°
2026-05-07 13:39 12.52849 -58.99928 37314 ft 322 kts 136°
2026-05-07 13:39 12.51015 -58.98644 37469 ft 322 kts 143°
2026-05-07 13:40 12.49179 -58.97218 37020 ft 341 kts 141°
2026-05-07 13:40 12.47339 -58.95643 36897 ft 343 kts 139°
2026-05-07 13:40 12.45571 -58.94067 37238 ft 336 kts 136°
2026-05-07 13:40 12.43913 -58.92386 37364 ft 337 kts 132°
2026-05-07 13:41 12.42515 -58.90391 36506 ft 367 kts 118°
2026-05-07 13:41 12.41249 -58.88130 36724 ft 363 kts 120°
2026-05-07 13:41 12.39863 -58.86084 37499 ft 341 kts 127°
2026-05-07 13:41 12.38271 -58.84184 37048 ft 358 kts 130°
2026-05-07 13:42 12.36563 -58.82317 36690 ft 372 kts 133°
2026-05-07 13:42 12.34503 -58.80550 36096 ft 392 kts 151°
2026-05-07 13:42 12.32172 -58.79309 37099 ft 365 kts 153°
2026-05-07 13:42 12.29962 -58.78156 37803 ft 349 kts 142°
2026-05-07 13:43 12.27971 -58.76764 37946 ft 346 kts 142°
2026-05-07 13:43 12.24071 -58.73846 37918 ft 353 kts 143°
2026-05-07 13:43 12.22115 -58.72361 38249 ft 345 kts 143°
2026-05-07 13:44 12.20187 -58.70857 38186 ft 351 kts 141°
2026-05-07 13:44 12.18241 -58.69285 37814 ft 367 kts 141°
2026-05-07 13:44 12.16270 -58.67600 37758 ft 372 kts 140°
2026-05-07 13:44 12.14271 -58.65841 37574 ft 378 kts 138°
2026-05-07 13:45 12.12280 -58.64027 37224 ft 395 kts 138°
2026-05-07 13:45 12.10224 -58.62137 37405 ft 390 kts 138°
2026-05-07 13:45 12.08243 -58.60312 38043 ft 378 kts 138°
2026-05-07 13:45 12.06269 -58.58511 37489 ft 392 kts 138°
2026-05-07 13:46 12.04169 -58.56624 36210 ft 413 kts 139°
2026-05-07 13:46 12.01969 -58.54672 35203 ft 424 kts 139°
2026-05-07 13:46 11.99724 -58.52695 34385 ft 429 kts 139°
2026-05-07 13:46 11.97453 -58.50701 33636 ft 431 kts 139°
2026-05-07 13:47 11.95166 -58.48693 33290 ft 437 kts 139°
2026-05-07 13:47 11.92861 -58.46668 33604 ft 436 kts 139°
2026-05-07 13:47 11.90569 -58.44650 33927 ft 434 kts 139°
2026-05-07 13:47 11.88287 -58.42641 34224 ft 433 kts 139°
2026-05-07 13:48 11.86003 -58.40632 34501 ft 433 kts 139°
2026-05-07 13:48 11.83726 -58.38626 34763 ft 432 kts 139°
2026-05-07 13:48 11.81452 -58.36620 35011 ft 432 kts 139°
2026-05-07 13:48 11.79180 -58.34617 35251 ft 431 kts 139°
2026-05-07 13:49 11.76911 -58.32617 35482 ft 431 kts 139°
2026-05-07 13:49 11.74645 -58.30621 35702 ft 430 kts 139°
2026-05-07 13:49 11.72379 -58.28628 35917 ft 430 kts 139°
2026-05-07 13:49 11.70114 -58.26639 36119 ft 429 kts 139°
2026-05-07 13:50 11.67852 -58.24650 36329 ft 429 kts 139°
2026-05-07 13:50 11.65594 -58.22659 36505 ft 429 kts 139°
2026-05-07 13:50 11.63367 -58.20695 36684 ft 429 kts 139°
2026-05-07 13:50 11.61111 -58.18707 36848 ft 429 kts 139°
2026-05-07 13:51 11.58853 -58.16720 37011 ft 429 kts 139°
2026-05-07 13:51 11.56590 -58.14734 37165 ft 429 kts 139°
2026-05-07 13:51 11.54329 -58.12750 37329 ft 429 kts 139°
2026-05-07 13:51 11.52067 -58.10765 37480 ft 429 kts 139°
2026-05-07 13:52 11.49809 -58.08782 37629 ft 429 kts 139°
2026-05-07 13:52 11.47546 -58.06795 37774 ft 429 kts 139°
2026-05-07 13:52 11.45285 -58.04811 37918 ft 429 kts 139°
2026-05-07 13:52 11.43023 -58.02827 38060 ft 429 kts 139°
2026-05-07 13:53 11.41493 -58.01485 38156 ft 429 kts 139°
2026-05-07 13:53 11.39230 -57.99501 38284 ft 429 kts 139°
2026-05-07 13:53 11.36999 -57.97544 38426 ft 429 kts 139°
2026-05-07 13:53 11.34717 -57.95545 38544 ft 429 kts 139°
2026-05-07 13:54 11.32486 -57.93589 38668 ft 429 kts 139°
2026-05-07 13:54 11.30223 -57.91606 38793 ft 429 kts 139°
2026-05-07 13:54 11.27965 -57.89628 38950 ft 428 kts 139°
2026-05-07 13:55 11.23445 -57.85672 39013 ft 429 kts 139°
2026-05-07 13:55 11.18924 -57.81714 39009 ft 429 kts 139°
2026-05-07 13:56 11.14406 -57.77752 39017 ft 429 kts 139°
2026-05-07 13:56 11.09883 -57.73798 39014 ft 429 kts 139°
2026-05-07 13:57 11.05363 -57.69839 39011 ft 429 kts 139°
2026-05-07 13:57 11.00844 -57.65885 39011 ft 429 kts 139°
2026-05-07 13:58 10.96322 -57.61930 39011 ft 429 kts 139°
2026-05-07 13:58 10.91793 -57.57978 39011 ft 429 kts 139°
2026-05-07 13:59 10.87267 -57.54028 39019 ft 429 kts 139°
2026-05-07 13:59 10.82736 -57.50082 39008 ft 429 kts 139°
2026-05-07 14:00 10.78210 -57.46132 39011 ft 429 kts 139°
2026-05-07 14:00 10.73685 -57.42178 39015 ft 429 kts 139°
2026-05-07 14:01 10.69160 -57.38231 39010 ft 429 kts 139°
2026-05-07 14:01 10.64629 -57.34283 39012 ft 429 kts 139°
2026-05-07 14:02 10.60098 -57.30340 39016 ft 429 kts 139°
2026-05-07 14:02 10.55564 -57.26400 39020 ft 429 kts 139°
2026-05-07 14:03 10.51052 -57.22469 39017 ft 429 kts 139°
2026-05-07 14:03 10.46519 -57.18527 39011 ft 429 kts 139°
2026-05-07 14:04 10.41992 -57.14583 39020 ft 429 kts 139°
2026-05-07 14:04 10.37460 -57.10640 39020 ft 429 kts 139°
2026-05-07 14:05 10.32926 -57.06703 39005 ft 429 kts 139°
2026-05-07 14:05 10.28389 -57.02770 39010 ft 429 kts 139°
2026-05-07 14:06 10.23853 -56.98835 39008 ft 429 kts 139°
2026-05-07 14:06 10.19325 -56.94895 39012 ft 429 kts 139°
2026-05-07 14:07 10.14791 -56.90959 39011 ft 429 kts 139°
2026-05-07 14:07 10.10254 -56.87028 39013 ft 429 kts 139°
2026-05-07 14:08 10.05711 -56.83099 39005 ft 429 kts 139°
2026-05-07 14:08 10.01207 -56.79195 39007 ft 429 kts 139°
2026-05-07 14:09 9.96670 -56.75261 39011 ft 429 kts 139°
2026-05-07 14:09 9.92136 -56.71328 39007 ft 429 kts 139°
2026-05-07 14:10 9.87600 -56.67398 39014 ft 429 kts 139°
2026-05-07 14:10 9.83059 -56.63472 39012 ft 429 kts 139°
2026-05-07 14:11 9.78515 -56.59553 39002 ft 429 kts 140°
2026-05-07 14:11 9.73972 -56.55627 39014 ft 429 kts 139°
2026-05-07 14:12 9.69438 -56.51697 39011 ft 429 kts 139°
2026-05-07 14:12 9.64898 -56.47771 39011 ft 429 kts 139°
2026-05-07 14:13 9.60355 -56.43848 39010 ft 429 kts 139°
2026-05-07 14:13 9.55814 -56.39930 39015 ft 429 kts 140°
2026-05-07 14:14 9.51267 -56.36014 39008 ft 429 kts 140°
2026-05-07 14:14 9.46721 -56.32098 39010 ft 429 kts 139°
2026-05-07 14:15 9.42178 -56.28176 39006 ft 429 kts 139°
2026-05-07 14:15 9.37637 -56.24255 39011 ft 429 kts 139°
2026-05-07 14:16 9.33094 -56.20337 39013 ft 429 kts 140°
2026-05-07 14:16 9.28549 -56.16421 39012 ft 429 kts 140°
2026-05-07 14:17 9.24002 -56.12508 39009 ft 429 kts 140°
2026-05-07 14:17 9.19457 -56.08595 39006 ft 429 kts 140°
2026-05-07 14:18 9.14910 -56.04685 39009 ft 429 kts 140°
2026-05-07 14:18 9.10392 -56.00802 39011 ft 429 kts 140°
2026-05-07 14:19 9.05657 -55.97139 39008 ft 429 kts 145°
2026-05-07 14:19 9.00768 -55.93683 39000 ft 429 kts 145°
2026-05-07 14:20 8.95875 -55.90228 39004 ft 429 kts 145°
2026-05-07 14:20 8.90991 -55.86766 39006 ft 429 kts 145°
2026-05-07 14:21 8.86106 -55.83298 39008 ft 429 kts 145°
2026-05-07 14:21 8.81218 -55.79839 39012 ft 429 kts 145°
2026-05-07 14:22 8.76325 -55.76386 39006 ft 429 kts 145°
2026-05-07 14:22 8.71430 -55.72935 39008 ft 429 kts 145°
2026-05-07 14:23 8.66542 -55.69475 39000 ft 429 kts 145°
2026-05-07 14:23 8.61654 -55.66020 39017 ft 429 kts 145°
2026-05-07 14:24 8.56762 -55.62566 39010 ft 429 kts 145°
2026-05-07 14:24 8.51873 -55.59111 39007 ft 429 kts 145°
2026-05-07 14:25 8.46979 -55.55660 39014 ft 429 kts 145°
2026-05-07 14:25 8.42088 -55.52208 39009 ft 429 kts 145°
2026-05-07 14:26 8.37202 -55.48749 39009 ft 429 kts 145°
2026-05-07 14:26 8.32312 -55.45299 39012 ft 429 kts 145°
2026-05-07 14:27 8.27447 -55.41881 39007 ft 429 kts 145°
2026-05-07 14:27 8.22557 -55.38434 39004 ft 429 kts 145°
2026-05-07 14:28 8.17668 -55.34979 39005 ft 429 kts 145°
2026-05-07 14:28 8.12772 -55.31538 39005 ft 429 kts 145°
2026-05-07 14:29 8.07878 -55.28096 39008 ft 429 kts 145°
2026-05-07 14:29 8.02986 -55.24650 39005 ft 429 kts 145°
2026-05-07 14:30 7.98093 -55.21205 39009 ft 429 kts 145°
2026-05-07 14:30 7.93200 -55.17764 39008 ft 429 kts 145°
2026-05-07 14:31 7.88307 -55.14321 39013 ft 429 kts 145°
2026-05-07 14:31 7.83412 -55.10880 39006 ft 429 kts 145°
2026-05-07 14:32 7.78595 -55.07335 38783 ft 427 kts 146°
2026-05-07 14:32 7.76286 -55.05639 38947 ft 424 kts 145°
2026-05-07 14:32 7.73780 -55.03909 38985 ft 427 kts 146°
2026-05-07 14:33 7.68819 -55.00584 39001 ft 429 kts 146°
2026-05-07 14:33 7.63890 -54.97198 39001 ft 429 kts 145°
2026-05-07 14:34 7.59001 -54.93752 39008 ft 429 kts 145°
2026-05-07 14:34 7.54147 -54.90327 39003 ft 429 kts 145°
2026-05-07 14:35 7.49252 -54.86891 39004 ft 429 kts 145°
2026-05-07 14:35 7.44355 -54.83459 39002 ft 429 kts 145°
2026-05-07 14:36 7.39456 -54.80030 39005 ft 429 kts 145°
2026-05-07 14:36 7.34561 -54.76598 39007 ft 429 kts 145°
2026-05-07 14:37 7.29666 -54.73161 39011 ft 429 kts 145°
2026-05-07 14:37 7.22321 -54.68014 39006 ft 429 kts 145°
2026-05-07 14:38 7.17425 -54.64584 39007 ft 429 kts 145°
2026-05-07 14:38 7.12528 -54.61154 39007 ft 429 kts 145°
2026-05-07 14:39 7.08462 -54.58300 39003 ft 429 kts 145°
2026-05-07 14:39 7.03563 -54.54873 39005 ft 429 kts 145°
2026-05-07 14:40 6.98662 -54.51450 39005 ft 429 kts 145°
2026-05-07 14:40 6.93767 -54.48019 39008 ft 429 kts 145°
2026-05-07 14:41 6.88871 -54.44589 39004 ft 429 kts 145°
2026-05-07 14:41 6.83972 -54.41165 39003 ft 429 kts 145°
2026-05-07 14:42 6.79070 -54.37744 39014 ft 429 kts 145°
2026-05-07 14:42 6.74166 -54.34325 39004 ft 429 kts 145°
2026-05-07 14:43 6.69267 -54.30903 39008 ft 429 kts 145°
2026-05-07 14:43 6.64369 -54.27478 39002 ft 429 kts 145°
2026-05-07 14:44 6.59469 -54.24053 39010 ft 429 kts 145°
2026-05-07 14:44 6.54570 -54.20633 39001 ft 429 kts 145°
2026-05-07 14:45 6.49667 -54.17213 39007 ft 429 kts 145°
2026-05-07 14:45 6.44771 -54.13789 39009 ft 429 kts 145°
2026-05-07 14:46 6.39873 -54.10367 39008 ft 429 kts 145°
2026-05-07 14:46 6.34968 -54.06952 39012 ft 429 kts 145°
2026-05-07 14:47 6.30066 -54.03537 39004 ft 429 kts 145°
2026-05-07 14:47 6.25163 -54.00124 38999 ft 429 kts 145°
2026-05-07 14:48 6.20358 -53.96573 39015 ft 429 kts 142°
2026-05-07 14:48 6.15653 -53.92887 39007 ft 429 kts 142°
2026-05-07 14:49 6.10940 -53.89206 38829 ft 430 kts 142°
2026-05-07 14:49 6.08570 -53.87383 38324 ft 429 kts 142°
2026-05-07 14:49 6.06198 -53.85572 37767 ft 428 kts 143°
2026-05-07 14:50 6.03829 -53.83771 37203 ft 427 kts 143°
2026-05-07 14:50 6.01452 -53.81966 36491 ft 430 kts 143°
2026-05-07 14:50 5.99069 -53.80147 35768 ft 432 kts 142°
2026-05-07 14:50 5.96703 -53.78336 35048 ft 434 kts 142°
2026-05-07 14:51 5.94280 -53.76479 34560 ft 430 kts 142°
2026-05-07 14:51 5.91944 -53.74688 34029 ft 427 kts 142°
2026-05-07 14:51 5.89560 -53.72862 33502 ft 424 kts 142°
2026-05-07 14:51 5.87226 -53.71071 32971 ft 421 kts 142°
2026-05-07 14:52 5.84909 -53.69293 32458 ft 418 kts 142°
2026-05-07 14:52 5.82607 -53.67532 31947 ft 415 kts 142°
2026-05-07 14:52 5.80350 -53.65807 31453 ft 412 kts 142°
2026-05-07 14:52 5.78078 -53.64071 30939 ft 409 kts 142°
2026-05-07 14:53 5.75827 -53.62350 30446 ft 406 kts 142°
2026-05-07 14:53 5.73589 -53.60640 29955 ft 402 kts 142°
2026-05-07 14:53 5.71372 -53.58945 29469 ft 399 kts 142°
2026-05-07 14:53 5.69175 -53.57264 29006 ft 395 kts 142°
2026-05-07 14:54 5.66997 -53.55599 28543 ft 392 kts 142°
2026-05-07 14:54 5.64839 -53.53948 28085 ft 388 kts 142°
2026-05-07 14:54 5.62705 -53.52319 27656 ft 384 kts 143°
2026-05-07 14:54 5.60591 -53.50704 27214 ft 380 kts 142°
2026-05-07 14:55 5.58502 -53.49109 26797 ft 375 kts 142°
2026-05-07 14:55 5.56436 -53.47530 26375 ft 371 kts 142°
2026-05-07 14:55 5.54394 -53.45967 25953 ft 367 kts 142°
2026-05-07 14:55 5.52370 -53.44421 25532 ft 364 kts 142°
2026-05-07 14:56 5.50367 -53.42891 25111 ft 360 kts 143°
2026-05-07 14:56 5.48376 -53.41374 24671 ft 358 kts 143°
2026-05-07 14:56 5.46401 -53.39865 24238 ft 355 kts 142°
2026-05-07 14:56 5.44444 -53.38365 23788 ft 353 kts 142°
2026-05-07 14:57 5.42502 -53.36875 23347 ft 351 kts 142°
2026-05-07 14:57 5.40568 -53.35394 22897 ft 349 kts 142°
2026-05-07 14:57 5.38641 -53.33922 22457 ft 347 kts 143°
2026-05-07 14:57 5.36720 -53.32458 22022 ft 346 kts 143°
2026-05-07 14:58 5.34806 -53.30998 21584 ft 345 kts 143°
2026-05-07 14:58 5.32901 -53.29546 21139 ft 343 kts 143°
2026-05-07 14:58 5.31003 -53.28098 20718 ft 342 kts 142°
2026-05-07 14:58 5.29115 -53.26655 20301 ft 340 kts 142°
2026-05-07 14:59 5.27233 -53.25218 19866 ft 339 kts 142°
2026-05-07 14:59 5.25361 -53.23789 19447 ft 337 kts 142°
2026-05-07 14:59 5.23499 -53.22366 19023 ft 336 kts 142°
2026-05-07 14:59 5.21648 -53.20952 18611 ft 334 kts 142°
2026-05-07 15:00 5.19801 -53.19544 18203 ft 332 kts 143°
2026-05-07 15:00 5.17990 -53.18110 17788 ft 331 kts 137°
2026-05-07 15:00 5.16466 -53.16392 17374 ft 329 kts 125°
2026-05-07 15:00 5.15154 -53.14515 16955 ft 328 kts 125°
2026-05-07 15:01 5.13840 -53.12648 16561 ft 327 kts 125°
2026-05-07 15:01 5.12528 -53.10789 16159 ft 326 kts 125°
2026-05-07 15:01 5.11218 -53.08937 15757 ft 325 kts 125°
2026-05-07 15:01 5.09912 -53.07092 15360 ft 324 kts 125°
2026-05-07 15:02 5.08607 -53.05250 14952 ft 323 kts 125°
2026-05-07 15:02 5.07307 -53.03413 14551 ft 322 kts 125°
2026-05-07 15:02 5.06011 -53.01579 14151 ft 321 kts 125°
2026-05-07 15:02 5.04721 -52.99755 13749 ft 321 kts 125°
2026-05-07 15:03 5.03436 -52.97932 13345 ft 319 kts 125°
2026-05-07 15:03 5.02158 -52.96115 12943 ft 318 kts 125°
2026-05-07 15:03 5.00940 -52.94387 12552 ft 312 kts 125°
2026-05-07 15:03 4.99654 -52.92565 11781 ft 307 kts 123°
2026-05-07 15:04 4.98434 -52.90843 11591 ft 300 kts 123°
2026-05-07 15:04 4.97238 -52.89153 11333 ft 295 kts 123°
2026-05-07 15:04 4.96053 -52.87475 10971 ft 295 kts 123°
2026-05-07 15:04 4.94868 -52.85797 10584 ft 295 kts 123°
2026-05-07 15:05 4.93687 -52.84123 10285 ft 292 kts 123°
2026-05-07 15:05 4.92514 -52.82460 9975 ft 290 kts 123°
2026-05-07 15:05 4.91354 -52.80816 9604 ft 289 kts 123°
2026-05-07 15:05 4.90195 -52.79176 9218 ft 288 kts 122°
2026-05-07 15:06 4.89041 -52.77544 8820 ft 286 kts 122°
2026-05-07 15:06 4.87915 -52.75950 8238 ft 283 kts 123°
2026-05-07 15:06 4.86792 -52.74362 7773 ft 275 kts 123°
2026-05-07 15:06 4.85702 -52.72825 7378 ft 268 kts 123°
2026-05-07 15:07 4.84620 -52.71296 6978 ft 270 kts 122°
2026-05-07 15:07 4.83535 -52.69758 6568 ft 271 kts 122°
2026-05-07 15:07 4.82446 -52.68215 6144 ft 271 kts 122°
2026-05-07 15:07 4.81356 -52.66672 5716 ft 271 kts 122°
2026-05-07 15:08 4.80267 -52.65130 5297 ft 271 kts 122°
2026-05-07 15:08 4.79180 -52.63592 4924 ft 269 kts 122°
2026-05-07 15:08 4.78099 -52.62063 4553 ft 267 kts 122°
2026-05-07 15:08 4.77023 -52.60542 4172 ft 266 kts 122°
2026-05-07 15:09 4.75976 -52.59063 4064 ft 254 kts 122°
2026-05-07 15:09 4.74978 -52.57656 3963 ft 241 kts 122°
2026-05-07 15:09 4.74058 -52.56300 3854 ft 229 kts 114°
2026-05-07 15:09 4.73690 -52.54818 3763 ft 215 kts 87°
2026-05-07 15:10 4.74023 -52.53386 3454 ft 212 kts 65°
2026-05-07 15:10 4.74657 -52.52041 3074 ft 213 kts 64°
2026-05-07 15:10 4.75271 -52.50719 2777 ft 205 kts 65°
2026-05-07 15:10 4.75865 -52.49435 2518 ft 200 kts 64°
2026-05-07 15:11 4.76426 -52.48216 2282 ft 187 kts 63°
2026-05-07 15:11 4.76962 -52.47054 2037 ft 179 kts 65°
2026-05-07 15:11 4.77464 -52.45966 1803 ft 166 kts 65°
2026-05-07 15:11 4.77917 -52.44982 1617 ft 147 kts 63°
2026-05-07 15:12 4.78350 -52.44044 1413 ft 148 kts 63°
2026-05-07 15:12 4.78774 -52.43124 1217 ft 145 kts 63°
2026-05-07 15:12 4.79185 -52.42232 1039 ft 140 kts 64°
2026-05-07 15:12 4.79589 -52.41355 873 ft 137 kts 62°
2026-05-07 15:13 4.80000 -52.40486 720 ft 139 kts 62°
2026-05-07 15:13 4.80398 -52.39592 486 ft 142 kts 63°
2026-05-07 15:13 4.80811 -52.38716 349 ft 137 kts 63°
2026-05-07 15:13 4.81203 -52.37845 158 ft 138 kts 62°
2026-05-07 15:14 4.81601 -52.36994 36 ft 126 kts 61°
2026-05-07 15:14 4.81911 -52.36319 29 ft 83 kts 68°
2026-05-07 15:14 4.82049 -52.36017 29 ft 9 kts 66°
2026-05-07 15:14 4.82098 -52.35973 29 ft 11 kts
2026-05-07 15:15 4.82158 -52.36014 29 ft 11 kts 306°
2026-05-07 15:15 4.82188 -52.36079 29 ft 9 kts 277°
2026-05-07 15:15 4.82171 -52.36139 29 ft 8 kts 246°
2026-05-07 15:15 4.82149 -52.36189 29 ft 7 kts 245°
2026-05-07 15:16 4.82125 -52.36233 29 ft 9 kts 237°
2026-05-07 15:16 4.82081 -52.36322 29 ft 14 kts 246°
2026-05-07 15:16 4.82056 -52.36380 29 ft 2 kts 257°
2026-05-07 15:16 4.82072 -52.36402 29 ft 9 kts 323°
2026-05-07 15:17 4.82115 -52.36424 29 ft 3 kts 334°
2026-05-07 15:17 4.82125 -52.36428 29 ft 0 kts 334°